Regional Weather Roundup
Issued by NWS

Home | Current Version | Previous Version | Graphics & Text | Print | Product List | Glossary On
Versions: 1 2 3 4 5 6 7 8 9 10 11 12 13 14 15 16 17 18 19 20 21 22 23 24 25 26 27 28 29 30 31 32 33 34 35 36 37 38 39 40 41 42 43 44 45 46 47 48 49 50
000
ASUS43 KLMK 182202
RWRKY
KENTUCKY REGIONAL WEATHER ROUNDUP
NATIONAL WEATHER SERVICE LOUISVILLE KY
500 PM EST MON DEC 18 2017

NOTE "FAIR" INDICATES FEW OR NO CLOUDS BELOW 12,000 FEET
WITH NO SIGNIFICANT WEATHER AND/OR OBSTRUCTIONS TO VISIBILITY.

KYZ001>023-026-027-061>063-070>075-182300-
WESTERN AND SOUTH CENTRAL KENTUCKY

CITY           SKY/WX    TMP DP  RH WIND       PRES   REMARKS
PADUCAH        CLOUDY    50  42  74 SW7       30.10S
HENDERSON      CLOUDY    49  43  80 SW12      30.09R
OWENSBORO      CLOUDY    50  43  77 SW10      30.10R
HOPKINSVILLE   CLOUDY    51  44  78 SW8       30.11S
BOWLING GREEN  CLOUDY    51  45  79 SW10      30.12R
GLASGOW        NOT AVBL
$$

KYZ024-025-028>034-038-045-046-053-182300-
NORTH CENTRAL KENTUCKY

CITY           SKY/WX    TMP DP  RH WIND       PRES   REMARKS
LOUISVILLE/SDF CLOUDY    49  45  86 SW10      30.07R
LOUISVILLE/LOU CLOUDY    48  47  96 SW7       30.08R
FORT KNOX      CLOUDY    48  46  93 SW6       30.07R
$$

KYZ035>037-039>044-047>052-055>060-089>105-182300-
NORTHEAST KENTUCKY

CITY           SKY/WX    TMP DP  RH WIND       PRES   REMARKS
LEXINGTON      LGT RAIN  48  45  89 SW10      30.07R
COVINGTON      CLOUDY    46  45  96 SW10      30.03R
FRANKFORT      CLOUDY    48  44  86 SW13      30.06R
$$

KYZ054-064>069-076>088-106>120-182300-
SOUTHEAST KENTUCKY

CITY           SKY/WX    TMP DP  RH WIND       PRES   REMARKS
JACKSON        CLOUDY    48  47  96 SW3       30.07S FOG
LONDON         CLOUDY    50  46  86 W8        30.09S
SOMERSET       CLOUDY    48  46  93 W9        30.12R
MIDDLESBORO    CLOUDY    48  46  93 CALM      30.13R
MONTICELLO     NOT AVBL
$$





USA.gov is the U.S. government's official web portal to all federal, state and local government web resources and services.